Location: Kavul?ru
(16.6288°N, 80.5832°E)
Time: 10:53:21
(UTC+00:00)

SEDSat Delta rocket - Pass Details

Date: 15 May 2026
Orbit: 529 x 962 km, 31.4° (Epoch: 7 June)

Event Time Altitude Azimuth Distance (km) Brightness Sun altitude
Exits shadow 23:38:30 - 282° (WNW) 2,824 5.9 -7.1°
Reaches altitude 10° 23:40:28 10° 274° (W) 2,137 5.3 -6.7°
Maximum altitude 23:44:42 28° 215° (SW) 1,192 4.1 -5.7°
Drops below altitude 10° 23:48:31 10° 156° (SSE) 1,917 5.6 -4.9°
Sets 23:50:57 0° 144° (SE) 2,761 6.6 -4.4°
